GW5434 Weather Reports


time (UTC)temp
F
wind
direction
speed
knots
gust
knots
rain 1hr
in
rain 24hr
in
rain mn
in
humidity
%
barometer
mb
20260510120009 64 13 0.0 1.7 0.00 0.43 0.00 96 1016.5
20260510114521 64 254 0.0 0.0 0.00 0.56 0.00 96 1016.3
20260510113024 64 254 0.0 0.9 0.00 0.84 0.00 96 1016.0
20260510111522 64 253 0.0 0.9 0.00 1.11 0.00 96 1015.8
20260510110008 64 254 0.0 0.9 0.00 1.13 0.00 96 1015.5
20260510104512 64 354 0.0 0.0 0.00 1.14 0.00 96 1015.2
20260510103015 64 354 0.0 0.0 0.00 1.14 0.00 96 1015.1
20260510101519 64 354 0.0 0.9 0.00 1.14 0.00 96 1014.9
20260510100023 64 358 0.0 1.7 0.00 1.14 0.00 96 1014.9
20260510094506 63 133 0.0 0.0 0.00 1.14 0.00 96 1014.9
20260510093014 63 132 0.0 0.0 0.00 1.14 0.00 96 1014.6
20260510091518 63 132 0.0 0.0 0.00 1.14 0.00 96 1014.8
20260510090022 63 133 0.0 0.0 0.00 1.14 0.00 96 1014.7
20260510084524 63 133 0.0 0.0 0.00 1.14 0.00 96 1014.7
20260510083010 63 133 0.0 0.0 0.00 1.14 0.00 96 1014.7
20260510081514 63 133 0.0 0.0 0.00 1.14 0.00 96 1014.4
20260510080036 63 133 0.0 0.0 0.00 1.14 0.00 96 1014.1
20260510074526 63 146 0.0 0.0 0.00 1.14 0.00 96 1014.1
20260510073037 63 146 0.0 0.0 0.00 1.14 0.00 96 1014.1
20260510071515 63 146 0.0 0.0 0.00 1.14 0.00 96 1014.1
20260510070014 63 146 0.0 0.0 0.00 1.14 0.00 96 1013.9
20260510064518 62 146 0.0 0.0 0.00 1.14 0.00 95 1014.0
20260510063029 62 174 0.0 0.0 0.00 1.14 0.00 95 1013.9
20260510061527 63 174 0.0 0.9 0.00 1.14 0.00 95 1013.8
20260510060031 63 152 0.0 0.0 0.00 1.14 0.00 95 1013.7
20260510054519 63 152 0.0 0.0 0.00 1.14 0.00 95 1013.7
20260510053022 63 356 0.0 0.0 0.00 1.14 0.00 95 1013.9
20260510051526 63 18 0.0 0.0 0.00 1.14 0.00 95 1014.0
20260510050026 63 101 0.0 0.0 0.00 1.14 0.00 95 1014.0
20260510044518 63 101 0.0 0.0 0.00 1.14 1.14 95 1014.0
20260510043018 63 180 0.0 0.0 0.00 1.14 1.14 95 1014.2
20260510041526 63 180 0.0 0.0 0.00 1.14 1.14 94 1014.3
20260510040026 64 180 0.0 0.0 0.00 1.14 1.14 94 1014.4
20260510034528 64 180 0.0 0.0 0.00 1.14 1.14 94 1014.5
20260510033014 64 253 0.0 0.9 0.00 1.14 1.14 94 1014.6
20260510031525 64 55 0.0 1.7 0.00 1.14 1.14 94 1014.0
20260510030023 64 251 0.9 1.7 0.00 1.14 1.14 94 1014.6
20260510024528 64 91 0.0 0.9 0.00 1.14 1.14 94 1014.4
20260510023026 65 91 0.0 0.9 0.00 1.14 1.14 93 1014.3
20260510021544 65 136 0.0 0.9 0.00 1.14 1.14 93 1014.4
20260510020022 65 103 0.0 0.0 0.00 1.14 1.14 93 1014.2
20260510014533 65 103 0.0 1.7 0.00 1.14 1.14 93 1014.2
20260510013031 66 153 0.0 0.9 0.00 1.14 1.14 92 1014.0
20260510011517 66 131 0.0 0.9 0.00 1.14 1.14 92 1013.7
20260510010033 67 118 0.0 0.9 0.00 1.14 1.14 91 1013.6
20260510004522 67 116 0.0 0.9 0.00 1.14 1.14 91 1013.8
20260510003026 67 13 0.0 0.9 0.00 1.14 1.14 90 1013.6
20260510001527 67 176 0.9 1.7 0.00 1.14 1.14 90 1013.5
20260510000016 67 217 0.0 2.6 0.00 1.14 1.14 89 1013.2
20260509234523 67 206 0.9 1.7 0.00 1.14 1.14 89 1012.9
20260509233026 68 148 0.9 2.6 0.00 1.14 1.14 88 1013.1
20260509231523 68 124 0.0 0.9 0.00 1.14 1.14 87 1012.8
20260509230035 68 232 1.7 3.5 0.00 1.14 1.14 86 1012.9
20260509224522 68 202 0.9 2.6 0.00 1.14 1.14 87 1012.9
20260509223003 68 174 1.7 6.1 0.00 1.14 1.14 87 1012.6
20260509221506 68 151 1.7 3.5 0.00 1.14 1.14 88 1012.4
20260509220011 68 136 0.9 3.5 0.00 1.14 1.14 88 1012.2
20260509214517 68 159 0.9 3.5 0.00 1.16 1.14 88 1012.1
20260509213020 68 176 0.9 2.6 0.00 1.16 1.14 87 1012.0
20260509211505 68 139 0.0 1.7 0.00 1.16 1.14 89 1012.1
20260509210007 68 134 0.9 2.6 0.00 1.19 1.14 88 1012.3
20260509204511 69 174 0.0 0.9 0.00 1.22 1.14 88 1012.5
20260509203023 68 204 0.0 2.6 0.00 1.25 1.14 88 1012.6
20260509201521 68 169 0.0 1.7 0.00 1.29 1.14 88 1012.5
20260509200006 68 252 0.0 1.7 0.00 1.30 1.14 88 1012.5
20260509194514 68 269 0.0 4.3 0.00 1.33 1.14 87 1012.5
20260509193021 69 290 1.7 4.3 0.00 1.37 1.14 86 1012.8
20260509191520 69 68 0.0 4.3 0.00 1.40 1.14 87 1012.9
20260509190026 69 209 0.0 3.5 0.00 1.44 1.14 86 1012.8
20260509184505 69 243 0.9 4.3 0.00 1.46 1.14 86 1012.7
20260509183015 68 176 0.0 2.6 0.00 1.49 1.14 87 1012.7
20260509181517 68 273 0.9 2.6 0.00 1.53 1.14 87 1012.6
20260509180020 68 252 0.0 0.0 0.00 1.58 1.14 87 1012.5
20260509174524 68 256 0.0 0.0 0.00 1.60 1.14 89 1012.7
20260509173007 67 148 0.0 0.0 0.00 1.64 1.14 90 1012.7
20260509171514 67 257 0.0 0.0 0.00 1.73 1.14 90 1013.0
20260509170021 67 240 0.0 0.0 0.00 1.77 1.14 89 1013.6
20260509164523 67 150 0.0 0.0 0.00 1.81 1.14 91 1013.7
20260509163030 66 154 1.7 4.3 0.00 1.85 1.14 91 1014.0
20260509161528 66 143 0.0 0.9 0.00 1.89 1.14 94 1013.7
20260509160031 64 150 0.9 1.7 0.00 1.92 1.14 94 1013.6
20260509154518 64 174 0.9 1.7 0.00 1.93 1.14 94 1013.5
20260509153038 64 173 0.0 0.9 0.00 1.93 1.14 95 1013.3
20260509151524 64 23 0.0 0.9 0.00 1.93 1.14 95 1013.2
20260509150030 64 23 0.0 0.9 0.01 1.94 1.14 95 1013.2
20260509144527 63 23 0.0 1.7 0.04 1.94 1.14 95 1013.3
20260509143020 63 154 0.0 0.0 0.12 1.94 1.14 96 1013.1
20260509141533 63 145 0.0 0.9 0.19 1.94 1.14 95 1012.6
20260509140026 63 156 0.9 6.1 0.25 1.93 1.13 95 1012.5
20260509134528 63 144 2.6 7.0 0.27 1.90 1.10 95 1012.5
20260509133022 63 116 0.9 4.3 0.24 1.82 1.02 95 1012.9
20260509131523 63 153 1.7 2.6 0.21 1.75 0.95 95 1013.2
20260509130007 63 110 0.0 1.7 0.17 1.68 0.88 95 1013.7
20260509124510 63 321 0.0 0.0 0.25 1.63 0.83 95 1014.5
20260509123016 63 296 0.0 1.7 0.48 1.58 0.78 95 1014.6
20260509121518 63 323 0.9 2.6 0.71 1.54 0.74 95 1014.1